STARLINK-2065 (47672 NORAD) Tracking and Keplerian Element Data
This shows tracking and keplerian element data for the satellite.
Feedback or suggestion? Click here.
Element | Value |
Catalog | 47672 |
Name | STARLINK-2065 |
Epoch Orbit | 944 |
Epoch Day | 102.16668981 |
Epoch Year | 2021 |
RAAN | 187.6948 |
Inclination | 53.0471 |
Eccentricity | 0.0001765 |
Argument of Perigee | 39.3908 |
Mean Anonmoly | 4.2302 |
Mean Motion | 15.73204885 |
Decay Rate | 0.00050386 |
L1 | 1 47672U 21012BE 21102.16668981 .00050386 00000-0 36112-3 0 9991 |
L2 | 2 47672 53.0471 187.6948 0001765 39.3908 4.2302 15.73204885 9443 |
Live tracking and technical data element details for STARLINK-2065 (NORAD 47672). STARLINK-2065 can be tracked NOW for your location showing map with azimuth and elevation plus other details from your city location.
Track the satellite on the map from your city or location and see movement details for azimuth, elevation, latitude, longitude, range, height, and movement on the map or in text.
IsCatalogInMostPopularTable: catalog: 47672, numindb: 15
Update: records affected: 1
GetName: 47672 STARLINK-2065
Hit Count: updated at: Tue, 13 Apr 2021 03:54:47 GMT